Terug naar catalogus

STARLINK-31786

ActiefCommunicatieVLEO
NORAD 59771·PAYLOAD·🇺🇸 United States

Gelanceerd May 14, 2024 vanaf Vandenberg Space Force Base

Loading…

Volgende Passages (komende 24 uur)

TLE

VersSource: CelesTrak SupGP

Epoch: Sep 15, 2026, 03:32 UTC

1 59771C 24091U   26258.14770833 -.00054458  00000+0 -16089-2 0  2582
2 59771  53.1586 226.4213 0001356  88.9979  54.4881 15.34418370    11

Volg STARLINK-31786 in realtime met AllMySat

Download on the App Store